Location: Chiroubles
(46.1812°N, 4.6660°E)
Time: 16:11:34
(UTC+00:00)

Transit 4A - Pass Details

Date: 09 December 2020
Orbit: 864 x 980 km, 66.8° (Epoch: 26 January)

Event Time Altitude Azimuth Distance (km) Brightness Sun altitude
Rises 09:28:29 0° 306° (NW) 3,688 10.5 15.3°
Reaches altitude 10° 09:33:32 10° 340° (NNW) 2,740 9.8 15.8°
Maximum altitude 09:35:21 11° 356° (N) 2,651 9.8 15.9°
Drops below altitude 10° 09:37:10 10° 13° (NNE) 2,733 10.0 16.1°
Sets 09:42:11 0° 47° (NE) 3,663 10.8 16.4°
